TimeEDT,TemperatureF,Dew PointF,Humidity,Sea Level PressureIn,VisibilityMPH,Wind Direction,Wind SpeedMPH,Gust SpeedMPH,PrecipitationIn,Events,Conditions,WindDirDegrees,DateUTC
12:14 AM,65.3,63.5,94,29.72,10.0,West,4.6,-,N/A,,Mostly Cloudy,260,2013-09-21 04:14:00
12:34 AM,65.3,63.5,94,29.72,10.0,WSW,4.6,-,N/A,,Mostly Cloudy,250,2013-09-21 04:34:00
12:54 AM,65.3,63.1,93,29.72,10.0,West,3.5,-,N/A,,Overcast,260,2013-09-21 04:54:00
1:13 AM,64.9,62.4,92,29.71,10.0,West,3.5,-,N/A,,Mostly Cloudy,280,2013-09-21 05:13:00
1:34 AM,64.6,61.7,90,29.71,10.0,Calm,Calm,-,N/A,,Scattered Clouds,0,2013-09-21 05:34:00
1:54 AM,63.9,61.3,91,29.71,10.0,West,4.6,-,N/A,,Scattered Clouds,260,2013-09-21 05:54:00
2:13 AM,63.3,61.2,93,29.71,10.0,Calm,Calm,-,N/A,,Scattered Clouds,0,2013-09-21 06:13:00
2:34 AM,63.1,61.0,93,29.71,10.0,West,3.5,-,N/A,,Mostly Cloudy,260,2013-09-21 06:34:00
2:54 AM,63.0,60.4,91,29.70,10.0,West,3.5,-,N/A,,Scattered Clouds,260,2013-09-21 06:54:00
3:13 AM,61.9,59.2,91,29.70,10.0,West,4.6,-,N/A,,Clear,260,2013-09-21 07:13:00
3:34 AM,61.3,59.0,92,29.69,10.0,West,3.5,-,N/A,,Clear,260,2013-09-21 07:34:00
3:54 AM,60.8,58.6,93,29.69,10.0,WSW,3.5,-,N/A,,Clear,240,2013-09-21 07:54:00
4:13 AM,60.4,58.6,94,29.69,10.0,WSW,4.6,-,N/A,,Clear,250,2013-09-21 08:13:00
4:34 AM,59.9,58.1,94,29.68,10.0,West,3.5,-,N/A,,Clear,260,2013-09-21 08:34:00
4:54 AM,59.5,58.3,96,29.69,10.0,West,3.5,-,N/A,,Clear,280,2013-09-21 08:54:00
5:13 AM,59.7,58.1,94,29.68,10.0,West,4.6,-,N/A,,Mostly Cloudy,270,2013-09-21 09:13:00
5:34 AM,59.9,57.9,93,29.68,10.0,West,3.5,-,N/A,,Scattered Clouds,280,2013-09-21 09:34:00
5:54 AM,59.9,58.1,94,29.68,10.0,West,5.8,-,N/A,,Mostly Cloudy,270,2013-09-21 09:54:00
6:13 AM,59.5,57.7,94,29.68,10.0,West,4.6,-,N/A,,Overcast,270,2013-09-21 10:13:00
6:34 AM,59.7,57.9,94,29.68,10.0,West,5.8,-,N/A,,Overcast,280,2013-09-21 10:34:00
6:54 AM,59.5,57.6,93,29.68,10.0,WNW,5.8,-,N/A,,Overcast,300,2013-09-21 10:54:00
7:13 AM,59.2,57.2,93,29.70,10.0,WNW,5.8,-,N/A,,Overcast,290,2013-09-21 11:13:00
7:34 AM,58.6,56.8,94,29.71,10.0,NW,6.9,-,N/A,,Overcast,310,2013-09-21 11:34:00
7:53 AM,58.6,56.3,92,29.71,10.0,NW,9.2,-,N/A,,Overcast,320,2013-09-21 11:53:00
8:14 AM,58.3,55.4,90,29.72,10.0,NNW,5.8,-,N/A,,Overcast,330,2013-09-21 12:14:00
8:34 AM,58.8,55.4,88,29.72,10.0,WNW,3.5,-,N/A,,Overcast,300,2013-09-21 12:34:00
8:53 AM,59.0,56.1,90,29.73,10.0,WNW,4.6,-,N/A,Rain,Light Rain,290,2013-09-21 12:53:00
9:14 AM,58.1,56.3,94,29.73,10.0,WNW,4.6,-,N/A,Rain,Light Rain,300,2013-09-21 13:14:00
9:34 AM,58.3,56.3,93,29.73,10.0,WNW,5.8,-,N/A,,Overcast,290,2013-09-21 13:34:00
9:53 AM,59.0,56.1,90,29.74,10.0,WNW,5.8,-,N/A,,Overcast,300,2013-09-21 13:53:00
10:14 AM,59.9,55.4,85,29.74,10.0,WNW,8.1,-,N/A,,Overcast,290,2013-09-21 14:14:00
10:34 AM,60.4,54.3,80,29.74,10.0,WNW,5.8,-,N/A,,Overcast,300,2013-09-21 14:34:00
10:54 AM,61.3,54.0,77,29.74,10.0,WNW,6.9,-,N/A,,Overcast,300,2013-09-21 14:54:00
11:14 AM,62.1,53.8,74,29.75,10.0,NW,9.2,-,N/A,,Overcast,320,2013-09-21 15:14:00
11:34 AM,63.0,54.3,73,29.75,10.0,NNW,9.2,-,N/A,,Mostly Cloudy,340,2013-09-21 15:34:00
11:54 AM,63.1,53.8,71,29.75,10.0,WNW,8.1,-,N/A,,Mostly Cloudy,290,2013-09-21 15:54:00
12:14 PM,61.5,51.4,69,29.76,10.0,NW,15.0,24.2,N/A,,Overcast,320,2013-09-21 16:14:00
12:34 PM,62.8,51.3,66,29.76,10.0,NNW,13.8,23.0,N/A,,Mostly Cloudy,330,2013-09-21 16:34:00
12:54 PM,61.3,51.4,70,29.76,7.0,NNW,12.7,18.4,N/A,,Mostly Cloudy,330,2013-09-21 16:54:00
1:14 PM,63.1,51.1,65,29.76,10.0,NW,8.1,17.3,N/A,,Overcast,320,2013-09-21 17:14:00
1:34 PM,64.6,47.3,53,29.76,10.0,NNW,9.2,19.6,N/A,,Mostly Cloudy,330,2013-09-21 17:34:00
1:54 PM,64.8,48.7,56,29.75,10.0,WNW,8.1,-,N/A,,Overcast,300,2013-09-21 17:54:00
2:14 PM,67.8,49.1,51,29.75,10.0,NW,11.5,16.1,N/A,,Mostly Cloudy,320,2013-09-21 18:14:00
2:34 PM,64.4,46.6,52,29.75,10.0,WNW,9.2,16.1,N/A,,Overcast,290,2013-09-21 18:34:00
2:54 PM,67.5,48.2,50,29.75,10.0,West,10.4,-,N/A,,Overcast,280,2013-09-21 18:54:00
3:14 PM,65.1,46.8,51,29.76,10.0,WNW,9.2,18.4,N/A,,Overcast,300,2013-09-21 19:14:00
3:34 PM,64.0,47.7,55,29.76,10.0,WNW,12.7,20.7,N/A,,Overcast,290,2013-09-21 19:34:00
3:54 PM,63.5,47.8,57,29.76,10.0,NW,18.4,24.2,N/A,,Overcast,320,2013-09-21 19:54:00
4:14 PM,60.3,48.6,65,29.78,10.0,NW,12.7,24.2,N/A,,Overcast,320,2013-09-21 20:14:00
4:34 PM,60.1,48.4,65,29.78,10.0,NW,11.5,18.4,N/A,,Overcast,310,2013-09-21 20:34:00
4:54 PM,59.4,49.1,69,29.79,10.0,NW,17.3,21.9,N/A,,Overcast,320,2013-09-21 20:54:00
5:14 PM,56.5,49.3,77,29.80,10.0,NW,8.1,18.4,N/A,,Overcast,310,2013-09-21 21:14:00
5:34 PM,57.4,48.2,71,29.80,10.0,WNW,8.1,17.3,N/A,,Overcast,300,2013-09-21 21:34:00
5:54 PM,58.6,47.8,67,29.81,10.0,NW,11.5,16.1,N/A,,Overcast,310,2013-09-21 21:54:00
6:14 PM,58.3,45.0,61,29.81,10.0,NW,11.5,20.7,N/A,,Overcast,310,2013-09-21 22:14:00
6:34 PM,57.7,45.1,63,29.82,10.0,WNW,8.1,-,N/A,,Overcast,290,2013-09-21 22:34:00
6:54 PM,57.4,45.9,65,29.82,10.0,NW,10.4,17.3,N/A,,Overcast,310,2013-09-21 22:54:00
7:14 PM,56.3,44.8,65,29.83,10.0,NW,8.1,17.3,N/A,,Overcast,310,2013-09-21 23:14:00
7:34 PM,55.6,44.8,67,29.84,10.0,NW,8.1,-,N/A,,Overcast,310,2013-09-21 23:34:00
7:54 PM,55.2,44.8,68,29.84,10.0,NNW,11.5,17.3,N/A,,Overcast,330,2013-09-21 23:54:00
8:14 PM,54.1,45.7,73,29.85,10.0,North,6.9,-,N/A,,Overcast,350,2013-09-22 00:14:00
8:34 PM,53.6,45.7,75,29.85,10.0,NNW,5.8,-,N/A,,Overcast,330,2013-09-22 00:34:00
8:54 PM,53.6,45.3,74,29.86,10.0,NW,4.6,-,N/A,,Overcast,320,2013-09-22 00:54:00
9:14 PM,53.6,45.5,74,29.87,10.0,NW,6.9,-,N/A,,Overcast,310,2013-09-22 01:14:00
9:34 PM,53.4,45.3,74,29.87,10.0,NW,4.6,-,N/A,,Overcast,320,2013-09-22 01:34:00
9:54 PM,53.6,45.5,74,29.87,10.0,WNW,3.5,-,N/A,,Overcast,300,2013-09-22 01:54:00
10:14 PM,53.2,45.1,74,29.88,10.0,WNW,5.8,-,N/A,,Overcast,300,2013-09-22 02:14:00
10:35 PM,52.7,44.4,73,29.88,10.0,NW,4.6,-,N/A,,Overcast,310,2013-09-22 02:35:00
10:54 PM,52.7,44.8,74,29.89,10.0,NNW,10.4,-,N/A,,Overcast,340,2013-09-22 02:54:00
11:14 PM,51.8,44.8,77,29.89,10.0,NNW,6.9,-,N/A,,Overcast,340,2013-09-22 03:14:00
11:35 PM,51.4,44.8,78,29.90,10.0,NNW,4.6,-,N/A,,Overcast,340,2013-09-22 03:35:00
11:54 PM,51.4,45.0,79,29.90,10.0,NW,5.8,-,N/A,,Overcast,320,2013-09-22 03:54:00